Weather History for Hickory, NC

Change the Weather History Date:

Saturday, September 22, 2012

  Actual Average Record
Temperature  
Mean Temperature 70 °F -  
Max Temperature 84 °F 78 °F 93 °F (1955)
Min Temperature 60 °F 57 °F 41 °F (1983)
Cooling Degree Days 6    
Growing Degree Days 20 (Base 50)    
Moisture  
Dew Point 60 °F    
Average Humidity 70    
Maximum Humidity 93    
Minimum Humidity 50    
Precipitation  
Precipitation 0.00 in - - ()
Sea Level Pressure  
Sea Level Pressure 29.93 in    
Wind  
Wind Speed 5 mph (SW)    
Max Wind Speed 8 mph    
Max Gust Speed -    
Visibility 9 miles    
Events      
Averages and records for this station are not official NWS values.
T = Trace of Precipitation, MM = Missing Value Source: NWS Daily Summary

Daily Weather History Graph

Daily Weather History Graph

Search for Another Location

Airport:

Trip Planner

Search our weather history database for the weather conditions in past years. The results will help you decide how hot, cold, wet, or windy it might be!

Date:

Astronomy

Sep. 22, 2012 Rise Set
Actual Time 7:13 AM EDT 7:21 PM EDT
Civil Twilight 6:48 AM EDT 7:47 PM EDT
Nautical Twilight 6:18 AM EDT 8:16 PM EDT
Astronomical Twilight 5:48 AM EDT 8:46 PM EDT
Moon 2:18 PM EDT (9/22) No Moon Set
Length of Visible Light 12h 58m
Length of Day
12h 07m
Waxing Crescent, 48% of the Moon is Illuminated
Sep 22
Waxing Crescent
Sep 22
First Quarter
Sep 29
Full
Oct 8
Last Quarter
Oct 15
New

Hourly Weather History & Observations

Time (EDT) Temp. Heat Index Dew Point Humidity Pressure Visibility Wind Dir Wind Speed Gust Speed Precip Events Conditions
12:53 AM 66.0 °F - 61.0 °F 84% 29.95 in 10.0 mi South 6.9 mph - N/A   Clear
1:53 AM 66.0 °F - 61.0 °F 84% 29.94 in 10.0 mi South 6.9 mph - N/A   Clear
2:53 AM 64.9 °F - 60.1 °F 84% 29.94 in 10.0 mi South 4.6 mph - N/A   Clear
3:53 AM 63.0 °F - 60.1 °F 90% 29.94 in 9.0 mi South 3.5 mph - N/A   Scattered Clouds
4:53 AM 63.0 °F - 60.1 °F 90% 29.94 in 9.0 mi Calm Calm - N/A   Overcast
5:53 AM 61.0 °F - 59.0 °F 93% 29.94 in 7.0 mi Calm Calm - N/A   Partly Cloudy
6:53 AM 60.1 °F - 57.9 °F 93% 29.94 in 5.0 mi Calm Calm - N/A   Clear
7:53 AM 61.0 °F - 59.0 °F 93% 29.96 in 4.0 mi Calm Calm - N/A   Clear
8:53 AM 64.0 °F - 61.0 °F 90% 29.96 in 6.0 mi Calm Calm - N/A   Clear
9:53 AM 68.0 °F - 62.1 °F 81% 29.96 in 10.0 mi West 3.5 mph - N/A   Clear
10:53 AM 73.0 °F - 63.0 °F 71% 29.94 in 10.0 mi South 3.5 mph - N/A   Clear
11:53 AM 77.0 °F - 60.1 °F 56% 29.93 in 10.0 mi Variable 4.6 mph - N/A   Clear
12:53 PM 79.0 °F - 63.0 °F 58% 29.91 in 10.0 mi South 8.1 mph - N/A   Clear
1:53 PM 81.0 °F 81.7 °F 61.0 °F 50% 29.89 in 10.0 mi SSW 8.1 mph - N/A   Partly Cloudy
2:53 PM 80.6 °F 81.5 °F 60.8 °F 51% 29.93 in 10.0 mi SSW 8.1 mph - N/A   Mostly Cloudy
3:53 PM 80.1 °F 81.1 °F 61.0 °F 52% 29.86 in 10.0 mi South 6.9 mph - N/A   Mostly Cloudy
4:53 PM 80.1 °F 81.2 °F 62.1 °F 54% 29.86 in 10.0 mi SW 8.1 mph - N/A   Scattered Clouds
5:53 PM 79.0 °F - 63.0 °F 58% 29.87 in 10.0 mi SSW 5.8 mph - N/A   Mostly Cloudy
6:53 PM 75.9 °F - 64.9 °F 69% 29.88 in 10.0 mi Calm Calm - N/A   Mostly Cloudy
7:53 PM 75.0 °F - 57.9 °F 55% 29.90 in 10.0 mi NW 4.6 mph - N/A   Mostly Cloudy
8:53 PM 73.0 °F - 57.0 °F 57% 29.92 in 10.0 mi NW 4.6 mph - N/A   Partly Cloudy
9:53 PM 71.1 °F - 57.0 °F 61% 29.94 in 10.0 mi NW 5.8 mph - N/A   Scattered Clouds
10:53 PM 69.1 °F - 52.0 °F 54% 29.96 in 10.0 mi NNW 5.8 mph - N/A   Mostly Cloudy
11:53 PM 68.0 °F - 48.9 °F 50% 29.98 in 10.0 mi NW 8.1 mph - N/A   Partly Cloudy